Tracking 28126 objects as of 1-Oct-2023
HD Live streaming from Space Station
objects crossing your sky now

STARLINK-4348

Track STARLINK-4348 now!
10-day predictions
STARLINK-4348 is classified as:


NORAD ID: 53075
Int'l Code: 2022-077AJ
Perigee: 569.4 km
Apogee: 571.0 km
Inclination: 97.7 °
Period: 95.9 minutes
Semi major axis: 6941 km
RCS: Unknown
Launch date: July 11, 2022
Source: United States (US)
Launch site: AIR FORCE WESTERN TEST RANGE (AFWTR)
Your satellite tracking list
Your tracking list is empty




NASA's NSSDC Master Catalog

Two Line Element Set (TLE):
1 53075U 22077AJ  23273.05628296 -.00001050  00000-0 -77176-4 0  9993
2 53075  97.6593  92.6201 0001163  85.8551 274.2806 15.01240328 67147
Source of the keplerian elements: AFSPC